Time,TemperatureF,DewpointF,PressureIn,WindDirection,WindDirectionDegrees,WindSpeedMPH,WindSpeedGustMPH,Humidity,HourlyPrecipIn,Conditions,Clouds,dailyrainin,SolarRadiationWatts/m^2,SoftwareType,DateUTC
2013-09-14 00:02:00,54.0,51.0,-100.00,NW,304,0.0,2.0,90,0.00,,,0.00,0.000000,,2013-09-14 07:02:00,
2013-09-14 00:12:00,54.0,51.0,-100.00,NW,304,0.0,2.0,90,0.00,,,0.00,0.000000,,2013-09-14 07:12:00,
2013-09-14 00:21:00,54.0,51.0,-100.00,NW,304,0.0,2.0,90,0.00,,,0.00,0.000000,,2013-09-14 07:21:00,
2013-09-14 00:52:00,54.0,51.0,-100.00,WNW,282,0.0,2.0,91,0.00,,,0.00,0.000000,,2013-09-14 07:52:00,
2013-09-14 01:02:00,54.0,51.0,-100.00,WNW,282,0.0,2.0,91,0.00,,,0.00,0.000000,,2013-09-14 08:02:00,
2013-09-14 01:12:00,54.0,51.0,-100.00,WNW,282,0.0,2.0,91,0.00,,,0.00,0.000000,,2013-09-14 08:12:00,
2013-09-14 01:21:00,54.0,51.0,-100.00,WNW,282,0.0,2.0,91,0.00,,,0.00,0.000000,,2013-09-14 08:21:00,
2013-09-14 01:31:00,54.0,51.0,-100.00,WNW,282,0.0,2.0,91,0.00,,,0.00,0.000000,,2013-09-14 08:31:00,
2013-09-14 01:33:00,53.0,51.0,-100.00,West,277,0.0,8.0,93,0.00,,,0.00,0.000000,,2013-09-14 08:33:00,
2013-09-14 01:52:00,53.0,51.0,-100.00,West,277,0.0,8.0,93,0.00,,,0.00,0.000000,,2013-09-14 08:52:00,
2013-09-14 02:02:00,53.0,51.0,-100.00,West,277,0.0,8.0,93,0.00,,,0.00,0.000000,,2013-09-14 09:02:00,
2013-09-14 02:12:00,53.0,51.0,-100.00,West,277,0.0,8.0,93,0.00,,,0.00,0.000000,,2013-09-14 09:12:00,
2013-09-14 02:21:00,53.0,51.0,-100.00,West,277,0.0,8.0,93,0.00,,,0.00,0.000000,,2013-09-14 09:21:00,
2013-09-14 02:53:00,53.0,51.0,-100.00,West,281,0.0,7.0,94,0.00,,,0.00,0.000000,,2013-09-14 09:53:00,
2013-09-14 03:03:00,53.0,51.0,-100.00,West,281,0.0,7.0,94,0.00,,,0.00,0.000000,,2013-09-14 10:03:00,
2013-09-14 03:12:00,53.0,51.0,-100.00,West,281,0.0,7.0,94,0.00,,,0.00,0.000000,,2013-09-14 10:12:00,
2013-09-14 03:23:00,53.0,51.0,-100.00,West,281,0.0,7.0,94,0.00,,,0.00,0.000000,,2013-09-14 10:23:00,
2013-09-14 03:32:00,53.0,51.0,-100.00,West,281,0.0,7.0,94,0.00,,,0.00,0.000000,,2013-09-14 10:32:00,
2013-09-14 03:33:00,53.0,52.0,-100.00,WNW,284,0.0,4.0,95,0.00,,,0.00,1.000000,,2013-09-14 10:33:00,
2013-09-14 03:53:00,53.0,52.0,-100.00,WNW,284,0.0,4.0,95,0.00,,,0.00,1.000000,,2013-09-14 10:53:00,
2013-09-14 04:02:00,53.0,52.0,-100.00,WNW,284,0.0,4.0,95,0.00,,,0.00,1.000000,,2013-09-14 11:02:00,
2013-09-14 04:12:00,53.0,52.0,-100.00,WNW,284,0.0,4.0,95,0.00,,,0.00,1.000000,,2013-09-14 11:12:00,
2013-09-14 04:22:00,53.0,52.0,-100.00,WNW,284,0.0,4.0,95,0.00,,,0.00,1.000000,,2013-09-14 11:22:00,
2013-09-14 04:52:00,52.0,51.0,-100.00,West,276,0.0,2.0,95,0.00,,,0.00,1.000000,,2013-09-14 11:52:00,
2013-09-14 05:02:00,52.0,51.0,-100.00,West,276,0.0,2.0,95,0.00,,,0.00,1.000000,,2013-09-14 12:02:00,
2013-09-14 05:12:00,52.0,51.0,-100.00,West,276,0.0,2.0,95,0.00,,,0.00,1.000000,,2013-09-14 12:12:00,
2013-09-14 05:22:00,52.0,51.0,-100.00,West,276,0.0,2.0,95,0.00,,,0.00,1.000000,,2013-09-14 12:22:00,
2013-09-14 05:31:00,52.0,51.0,-100.00,West,276,0.0,2.0,95,0.00,,,0.00,1.000000,,2013-09-14 12:31:00,
2013-09-14 05:52:00,52.0,51.0,-100.00,WNW,283,0.0,1.0,95,0.00,,,0.00,1.000000,,2013-09-14 12:52:00,
2013-09-14 06:01:00,52.0,51.0,-100.00,WNW,283,0.0,1.0,95,0.00,,,0.00,1.000000,,2013-09-14 13:01:00,
2013-09-14 06:12:00,52.0,51.0,-100.00,WNW,283,0.0,1.0,95,0.00,,,0.00,1.000000,,2013-09-14 13:12:00,
2013-09-14 06:21:00,52.0,51.0,-100.00,WNW,283,0.0,1.0,95,0.00,,,0.00,1.000000,,2013-09-14 13:21:00,
2013-09-14 06:32:00,52.0,51.0,-100.00,WNW,283,0.0,1.0,95,0.00,,,0.00,1.000000,,2013-09-14 13:32:00,
2013-09-14 06:52:00,51.0,50.0,-100.00,NW,304,0.0,0.0,95,0.00,,,0.00,1.000000,,2013-09-14 13:52:00,
2013-09-14 07:02:00,51.0,50.0,-100.00,NW,304,0.0,0.0,95,0.00,,,0.00,1.000000,,2013-09-14 14:02:00,
2013-09-14 07:11:00,51.0,50.0,-100.00,NW,304,0.0,0.0,95,0.00,,,0.00,1.000000,,2013-09-14 14:11:00,
2013-09-14 07:22:00,51.0,50.0,-100.00,NW,304,0.0,0.0,95,0.00,,,0.00,1.000000,,2013-09-14 14:22:00,
2013-09-14 07:32:00,51.0,50.0,-100.00,NW,304,0.0,0.0,95,0.00,,,0.00,1.000000,,2013-09-14 14:32:00,
2013-09-14 07:33:00,52.0,51.0,-100.00,WNW,283,0.0,0.0,95,0.00,,,0.00,23.000000,,2013-09-14 14:33:00,
2013-09-14 07:52:00,52.0,51.0,-100.00,WNW,283,0.0,0.0,95,0.00,,,0.00,23.000000,,2013-09-14 14:52:00,
2013-09-14 08:02:00,52.0,51.0,-100.00,WNW,283,0.0,0.0,95,0.00,,,0.00,23.000000,,2013-09-14 15:02:00,
2013-09-14 08:11:00,52.0,51.0,-100.00,WNW,283,0.0,0.0,95,0.00,,,0.00,23.000000,,2013-09-14 15:11:00,
2013-09-14 08:22:00,52.0,51.0,-100.00,WNW,283,0.0,0.0,95,0.00,,,0.00,23.000000,,2013-09-14 15:22:00,
2013-09-14 08:33:00,52.0,51.0,-100.00,West,277,0.0,3.0,96,0.00,,,0.00,113.000000,,2013-09-14 15:33:00,
2013-09-14 08:53:00,52.0,51.0,-100.00,West,277,0.0,3.0,96,0.00,,,0.00,113.000000,,2013-09-14 15:53:00,
2013-09-14 09:03:00,52.0,51.0,-100.00,West,277,0.0,3.0,96,0.00,,,0.00,113.000000,,2013-09-14 16:03:00,
2013-09-14 09:13:00,52.0,51.0,-100.00,West,277,0.0,3.0,96,0.00,,,0.00,113.000000,,2013-09-14 16:13:00,
2013-09-14 09:23:00,52.0,51.0,-100.00,West,277,0.0,3.0,96,0.00,,,0.00,113.000000,,2013-09-14 16:23:00,
2013-09-14 09:33:00,54.0,53.0,-100.00,West,274,0.0,5.0,96,0.00,,,0.00,218.000000,,2013-09-14 16:33:00,
2013-09-14 09:54:00,54.0,53.0,-100.00,West,274,0.0,5.0,96,0.00,,,0.00,218.000000,,2013-09-14 16:54:00,
2013-09-14 10:03:00,54.0,53.0,-100.00,West,274,0.0,5.0,96,0.00,,,0.00,218.000000,,2013-09-14 17:03:00,
2013-09-14 10:11:00,54.0,53.0,-100.00,West,274,0.0,5.0,96,0.00,,,0.00,218.000000,,2013-09-14 17:11:00,
2013-09-14 10:23:00,54.0,53.0,-100.00,West,274,0.0,5.0,96,0.00,,,0.00,218.000000,,2013-09-14 17:23:00,
2013-09-14 10:54:00,57.0,56.0,-100.00,West,267,0.0,6.0,95,0.00,,,0.00,421.000000,,2013-09-14 17:54:00,
2013-09-14 11:02:00,57.0,56.0,-100.00,West,267,0.0,6.0,95,0.00,,,0.00,421.000000,,2013-09-14 18:02:00,
2013-09-14 11:12:00,57.0,56.0,-100.00,West,267,0.0,6.0,95,0.00,,,0.00,421.000000,,2013-09-14 18:12:00,
2013-09-14 11:21:00,57.0,56.0,-100.00,West,267,0.0,6.0,95,0.00,,,0.00,421.000000,,2013-09-14 18:21:00,
2013-09-14 11:32:00,57.0,56.0,-100.00,West,267,0.0,6.0,95,0.00,,,0.00,421.000000,,2013-09-14 18:32:00,
2013-09-14 11:52:00,59.0,54.0,-100.00,West,274,0.0,10.0,82,0.00,,,0.00,669.000000,,2013-09-14 18:52:00,
2013-09-14 12:02:00,59.0,54.0,-100.00,West,274,0.0,10.0,82,0.00,,,0.00,669.000000,,2013-09-14 19:02:00,
2013-09-14 12:11:00,59.0,54.0,-100.00,West,274,0.0,10.0,82,0.00,,,0.00,669.000000,,2013-09-14 19:11:00,
2013-09-14 12:22:00,59.0,54.0,-100.00,West,274,0.0,10.0,82,0.00,,,0.00,669.000000,,2013-09-14 19:22:00,
2013-09-14 12:32:00,59.0,54.0,-100.00,West,274,0.0,10.0,82,0.00,,,0.00,669.000000,,2013-09-14 19:32:00,
2013-09-14 12:52:00,60.0,53.0,-100.00,West,275,1.0,13.0,78,0.00,,,0.00,769.000000,,2013-09-14 19:52:00,
2013-09-14 13:02:00,60.0,53.0,-100.00,West,275,1.0,13.0,78,0.00,,,0.00,769.000000,,2013-09-14 20:02:00,
2013-09-14 13:12:00,60.0,53.0,-100.00,West,275,1.0,13.0,78,0.00,,,0.00,769.000000,,2013-09-14 20:12:00,
2013-09-14 13:22:00,60.0,53.0,-100.00,West,275,1.0,13.0,78,0.00,,,0.00,769.000000,,2013-09-14 20:22:00,
2013-09-14 13:32:00,60.0,53.0,-100.00,West,275,1.0,13.0,78,0.00,,,0.00,769.000000,,2013-09-14 20:32:00,
2013-09-14 13:52:00,61.0,53.0,-100.00,West,276,2.0,18.0,74,0.00,,,0.00,820.000000,,2013-09-14 20:52:00,
2013-09-14 14:02:00,61.0,53.0,-100.00,West,276,2.0,18.0,74,0.00,,,0.00,820.000000,,2013-09-14 21:02:00,
2013-09-14 14:11:00,61.0,53.0,-100.00,West,276,2.0,18.0,74,0.00,,,0.00,820.000000,,2013-09-14 21:11:00,
2013-09-14 14:22:00,61.0,53.0,-100.00,West,276,2.0,18.0,74,0.00,,,0.00,820.000000,,2013-09-14 21:22:00,
2013-09-14 14:32:00,61.0,53.0,-100.00,West,276,2.0,18.0,74,0.00,,,0.00,820.000000,,2013-09-14 21:32:00,
2013-09-14 14:33:00,64.0,53.0,-100.00,West,279,1.0,20.0,67,0.00,,,0.00,811.000000,,2013-09-14 21:33:00,
2013-09-14 14:54:00,64.0,53.0,-100.00,West,279,1.0,20.0,67,0.00,,,0.00,811.000000,,2013-09-14 21:54:00,
2013-09-14 15:04:00,64.0,53.0,-100.00,West,279,1.0,20.0,67,0.00,,,0.00,811.000000,,2013-09-14 22:04:00,
2013-09-14 15:13:00,64.0,53.0,-100.00,West,279,1.0,20.0,67,0.00,,,0.00,811.000000,,2013-09-14 22:13:00,
2013-09-14 15:24:00,64.0,53.0,-100.00,West,279,1.0,20.0,67,0.00,,,0.00,811.000000,,2013-09-14 22:24:00,
2013-09-14 15:33:00,66.0,53.0,-100.00,West,270,1.0,19.0,62,0.00,,,0.00,738.000000,,2013-09-14 22:33:00,
2013-09-14 15:53:00,66.0,53.0,-100.00,West,270,1.0,19.0,62,0.00,,,0.00,738.000000,,2013-09-14 22:53:00,
2013-09-14 16:03:00,66.0,53.0,-100.00,West,270,1.0,19.0,62,0.00,,,0.00,738.000000,,2013-09-14 23:03:00,
2013-09-14 16:11:00,66.0,53.0,-100.00,West,270,1.0,19.0,62,0.00,,,0.00,738.000000,,2013-09-14 23:11:00,
2013-09-14 16:23:00,66.0,53.0,-100.00,West,270,1.0,19.0,62,0.00,,,0.00,738.000000,,2013-09-14 23:23:00,
2013-09-14 16:53:00,65.0,53.0,-100.00,West,274,0.0,18.0,64,0.00,,,0.00,615.000000,,2013-09-14 23:53:00,
2013-09-14 17:02:00,65.0,53.0,-100.00,West,274,0.0,18.0,64,0.00,,,0.00,615.000000,,2013-09-15 00:02:00,
2013-09-14 17:12:00,65.0,53.0,-100.00,West,274,0.0,18.0,64,0.00,,,0.00,615.000000,,2013-09-15 00:12:00,
2013-09-14 17:22:00,65.0,53.0,-100.00,West,274,0.0,18.0,64,0.00,,,0.00,615.000000,,2013-09-15 00:22:00,
2013-09-14 17:31:00,65.0,53.0,-100.00,West,274,0.0,18.0,64,0.00,,,0.00,615.000000,,2013-09-15 00:31:00,
2013-09-14 17:53:00,64.0,52.0,-100.00,WSW,254,0.0,16.0,64,0.00,,,0.00,451.000000,,2013-09-15 00:53:00,
2013-09-14 18:01:00,64.0,52.0,-100.00,WSW,254,0.0,16.0,64,0.00,,,0.00,451.000000,,2013-09-15 01:01:00,
2013-09-14 18:11:00,64.0,52.0,-100.00,WSW,254,0.0,16.0,64,0.00,,,0.00,451.000000,,2013-09-15 01:11:00,
2013-09-14 18:22:00,64.0,52.0,-100.00,WSW,254,0.0,16.0,64,0.00,,,0.00,451.000000,,2013-09-15 01:22:00,
2013-09-14 18:32:00,64.0,52.0,-100.00,WSW,254,0.0,16.0,64,0.00,,,0.00,451.000000,,2013-09-15 01:32:00,
2013-09-14 18:52:00,61.0,50.0,-100.00,WSW,255,1.0,15.0,68,0.00,,,0.00,255.000000,,2013-09-15 01:52:00,
2013-09-14 19:02:00,61.0,50.0,-100.00,WSW,255,1.0,15.0,68,0.00,,,0.00,255.000000,,2013-09-15 02:02:00,
2013-09-14 19:12:00,61.0,50.0,-100.00,WSW,255,1.0,15.0,68,0.00,,,0.00,255.000000,,2013-09-15 02:12:00,
2013-09-14 19:22:00,61.0,50.0,-100.00,WSW,255,1.0,15.0,68,0.00,,,0.00,255.000000,,2013-09-15 02:22:00,
2013-09-14 19:32:00,61.0,50.0,-100.00,WSW,255,1.0,15.0,68,0.00,,,0.00,255.000000,,2013-09-15 02:32:00,
2013-09-14 19:33:00,56.0,51.0,-100.00,SW,215,0.0,17.0,83,0.00,,,0.00,54.000000,,2013-09-15 02:33:00,
2013-09-14 19:52:00,56.0,51.0,-100.00,SW,215,0.0,17.0,83,0.00,,,0.00,54.000000,,2013-09-15 02:52:00,
2013-09-14 20:02:00,56.0,51.0,-100.00,SW,215,0.0,17.0,83,0.00,,,0.00,54.000000,,2013-09-15 03:02:00,
2013-09-14 20:11:00,56.0,51.0,-100.00,SW,215,0.0,17.0,83,0.00,,,0.00,54.000000,,2013-09-15 03:11:00,
2013-09-14 20:21:00,56.0,51.0,-100.00,SW,215,0.0,17.0,83,0.00,,,0.00,54.000000,,2013-09-15 03:21:00,
2013-09-14 20:33:00,55.0,50.0,-100.00,South,176,0.0,13.0,83,0.00,,,0.00,1.000000,,2013-09-15 03:33:00,
2013-09-14 20:55:00,55.0,50.0,-100.00,South,176,0.0,13.0,83,0.00,,,0.00,1.000000,,2013-09-15 03:55:00,
2013-09-14 21:02:00,-999.0,-99.9,-100.00,South,176,0.0,13.0,-999,-99.99,,,-99.99,1.000000,,2013-09-15 04:02:00,
2013-09-14 21:13:00,55.0,50.0,-100.00,South,176,0.0,13.0,83,0.00,,,0.00,1.000000,,2013-09-15 04:13:00,
2013-09-14 21:24:00,55.0,50.0,-100.00,South,176,0.0,13.0,83,0.00,,,0.00,1.000000,,2013-09-15 04:24:00,
2013-09-14 21:33:00,55.0,50.0,-100.00,West,271,0.0,5.0,82,0.00,,,0.00,0.000000,,2013-09-15 04:33:00,
2013-09-14 21:54:00,55.0,50.0,-100.00,West,271,0.0,5.0,82,0.00,,,0.00,0.000000,,2013-09-15 04:54:00,
2013-09-14 22:03:00,55.0,50.0,-100.00,West,271,0.0,5.0,82,0.00,,,0.00,0.000000,,2013-09-15 05:03:00,
2013-09-14 22:13:00,55.0,50.0,-100.00,West,271,0.0,5.0,82,0.00,,,0.00,0.000000,,2013-09-15 05:13:00,
2013-09-14 22:22:00,55.0,50.0,-100.00,West,271,0.0,5.0,82,0.00,,,0.00,0.000000,,2013-09-15 05:22:00,
2013-09-14 22:52:00,55.0,50.0,-100.00,West,265,1.0,17.0,83,0.00,,,0.00,0.000000,,2013-09-15 05:52:00,
2013-09-14 23:02:00,55.0,50.0,-100.00,West,265,1.0,17.0,83,0.00,,,0.00,0.000000,,2013-09-15 06:02:00,
2013-09-14 23:12:00,55.0,50.0,-100.00,West,265,1.0,17.0,83,0.00,,,0.00,0.000000,,2013-09-15 06:12:00,
2013-09-14 23:21:00,55.0,50.0,-100.00,West,265,1.0,17.0,83,0.00,,,0.00,0.000000,,2013-09-15 06:21:00,
2013-09-14 23:32:00,55.0,50.0,-100.00,West,265,1.0,17.0,83,0.00,,,0.00,0.000000,,2013-09-15 06:32:00,
2013-09-14 23:33:00,54.0,50.0,-100.00,West,279,2.0,-999.0,87,0.00,,,0.00,,,2013-09-15 06:33:00,
2013-09-14 23:52:00,54.0,50.0,-100.00,West,279,2.0,-999.0,87,0.00,,,0.00,,,2013-09-15 06:52:00,